H1 CPF 2 NER 2024 9 10 9 254 01 glonass139 H2 1808601 9139 43687 2024 9 10 0 0 0 2024 9 13 23 45 0 900 1 1 0 0 0 1 H9 10 0 60563 0.00000 0 -9314462.528 -18984558.141 14295567.309 10 0 60563 900.00000 0 -7986969.404 -17614946.559 16659564.218 10 0 60563 1800.00000 0 -6354112.473 -16173847.981 18700686.041 10 0 60563 2700.00000 0 -4435171.925 -14721963.964 20379447.813 10 0 60563 3600.00000 0 -2261498.779 -13316805.648 21663380.978 10 0 60563 4500.00000 0 124531.563 -12010310.502 22527652.042 10 0 60563 5400.00000 0 2671026.029 -10846712.177 22955535.587 10 0 60563 6300.00000 0 5318479.600 -9860751.269 22938733.430 10 0 60563 7200.00000 0 8002002.496 -9076300.588 22477534.323 10 0 60563 8100.00000 0 10653778.206 -8505461.401 21580811.302 10 0 60563 9000.00000 0 13205652.187 -8148167.715 20265856.511 10 0 60563 9900.00000 0 15591745.512 -7992314.852 18558056.026 10 0 60563 10800.00000 0 17750986.420 -8014406.894 16490410.012 10 0 60563 11700.00000 0 19629455.725 -8180696.198 14102906.236 10 0 60563 12600.00000 0 21182449.169 -8448767.580 11441757.783 10 0 60563 13500.00000 0 22376171.129 -8769501.144 8558518.429 10 0 60563 14400.00000 0 23188988.902 -9089331.533 5509091.709 10 0 60563 15300.00000 0 23612194.726 -9352708.603 2352652.102 10 0 60563 16200.00000 0 23650243.082 -9504655.541 -849501.209 10 0 60563 17100.00000 0 23320452.671 -9493315.856 -4035135.849 10 0 60563 18000.00000 0 22652185.005 -9272380.653 -7142299.555 10 0 60563 18900.00000 0 21685533.711 -8803292.253 -10110531.117 10 0 60563 19800.00000 0 20469579.488 -8057129.368 -12882044.621 10 0 60563 20700.00000 0 19060284.216 -7016092.317 -15402862.992 10 0 60563 21600.00000 0 17518113.138 -5674523.617 -17623877.869 10 0 60563 22500.00000 0 15905485.664 -4039418.940 -19501814.349 10 0 60563 23400.00000 0 14284162.640 -2130405.075 -21000081.099 10 0 60563 24300.00000 0 12712680.540 20815.826 -22089488.765 10 0 60563 25200.00000 0 11243940.944 2371533.841 -22748822.416 10 0 60563 26100.00000 0 9923056.895 4869567.026 -22965256.691 10 0 60563 27000.00000 0 8785546.699 7455201.895 -22734605.586 10 0 60563 27900.00000 0 7855950.758 10063458.099 -22061402.129 10 0 60563 28800.00000 0 7146929.050 12626582.988 -20958806.560 10 0 60563 29700.00000 0 6658876.322 15076672.143 -19448345.043 10 0 60563 30600.00000 0 6380070.051 17348306.592 -17559484.248 10 0 60563 31500.00000 0 6287343.669 19381096.696 -15329050.412 10 0 60563 32400.00000 0 6347255.208 21122026.677 -12800504.585 10 0 60563 33300.00000 0 6517700.572 22527502.166 -10023088.596 10 0 60563 34200.00000 0 6749901.861 23565015.704 -7050858.951 10 0 60563 35100.00000 0 6990685.345 24214361.306 -3941628.069 10 0 60563 36000.00000 0 7184951.573 24468348.327 -755834.102 10 0 60563 36900.00000 0 7278232.158 24332985.983 2444637.984 10 0 60563 37800.00000 0 7219224.369 23827132.265 5597660.616 10 0 60563 38700.00000 0 6962195.902 22981623.453 8642069.293 10 0 60563 39600.00000 0 6469157.961 21837922.196 11518846.136 10 0 60563 40500.00000 0 5711714.899 20446342.047 14172258.448 10 0 60563 41400.00000 0 4672512.462 18863923.775 16550930.667 10 0 60563 42300.00000 0 3346223.716 17152052.893 18608829.592 10 0 60563 43200.00000 0 1740031.156 15373918.151 20306144.846 10 0 60563 44100.00000 0 -126415.577 13591916.797 21610048.630 10 0 60563 45000.00000 0 -2221565.204 11865114.199 22495321.286 10 0 60563 45900.00000 0 -4503030.904 10246862.704 22944831.690 10 0 60563 46800.00000 0 -6919113.900 8782677.733 22949864.090 10 0 60563 47700.00000 0 -9410722.657 7508458.337 22510285.706 10 0 60563 48600.00000 0 -11913609.718 6449125.144 21634552.016 10 0 60563 49500.00000 0 -14360835.063 5617731.455 20339549.470 10 0 60563 50400.00000 0 -16685355.397 5015083.870 18650278.004 10 0 60563 51300.00000 0 -18822633.347 4629887.856 16599378.569 10 0 60563 52200.00000 0 -20713159.269 4439412.041 14226513.568 10 0 60563 53100.00000 0 -22304781.496 4410643.540 11577610.912 10 0 60563 54000.00000 0 -23554748.235 4501886.041 8703985.034 10 0 60563 54900.00000 0 -24431375.835 4664733.742 5661350.759 10 0 60563 55800.00000 0 -24915273.174 4846338.123 2508748.350 10 0 60563 56700.00000 0 -25000070.203 4991871.874 -692599.925 10 0 60563 57600.00000 0 -24692619.232 5047085.501 -3880479.614 10 0 60563 58500.00000 0 -24012659.612 4960847.783 -6992896.861 10 0 60563 59400.00000 0 -22991959.138 4687561.511 -9969290.032 10 0 60563 60300.00000 0 -21672967.701 4189350.871 -12751715.809 10 0 60563 61200.00000 0 -20107039.496 3437926.286 -15285985.737 10 0 60563 62100.00000 0 -18352298.494 2416046.030 -17522730.200 10 0 60563 63000.00000 0 -16471237.097 1118511.031 -19418368.251 10 0 60563 63900.00000 0 -14528149.251 -447350.982 -20935963.719 10 0 60563 64800.00000 0 -12586506.223 -2261734.060 -22045950.406 10 0 60563 65700.00000 0 -10706385.591 -4292934.860 -22726711.950 10 0 60563 66600.00000 0 -8942061.574 -6498442.553 -22965004.880 10 0 60563 67500.00000 0 -7339857.795 -8826493.116 -22756216.663 10 0 60563 68400.00000 0 -5936352.289 -11218023.635 -22104453.781 10 0 60563 69300.00000 0 -4757009.480 -13608945.265 -21022458.322 10 0 60563 70200.00000 0 -3815295.636 -15932640.040 -19531354.920 10 0 60563 71100.00000 0 -3112313.775 -18122577.274 -17660233.232 10 0 60563 72000.00000 0 -2636971.889 -20114940.135 -15445574.403 10 0 60563 72900.00000 0 -2366675.805 -21851152.604 -12930533.079 10 0 60563 73800.00000 0 -2268515.727 -23280201.217 -10164089.357 10 0 60563 74700.00000 0 -2300894.669 -24360654.619 -7200087.773 10 0 60563 75600.00000 0 -2415528.359 -25062296.853 -4096182.615 10 0 60563 76500.00000 0 -2559730.549 -25367306.614 -912710.740 10 0 60563 77400.00000 0 -2678885.843 -25270933.952 2288485.517 10 0 60563 78300.00000 0 -2719004.407 -24781647.172 5445261.872 10 0 60563 79200.00000 0 -2629249.843 -23920744.991 8496378.299 10 0 60563 80100.00000 0 -2364332.930 -22721451.434 11382684.243 10 0 60563 81000.00000 0 -1886669.972 -21227532.534 14048259.955 10 0 60563 81900.00000 0 -1168214.697 -19491493.614 16441492.227 10 0 60563 82800.00000 0 -191886.619 -17572433.148 18516064.366 10 0 60563 83700.00000 0 1047464.170 -15533643.009 20231842.209 10 0 60563 84600.00000 0 2542596.442 -13440054.965 21555640.176 10 0 60563 85500.00000 0 4273941.168 -11355639.214 22461853.709 10 0 60564 0.00000 0 6210186.667 -9340862.425 22932946.993 10 0 60564 900.00000 0 8309363.299 -7450308.714 22959787.618 10 0 60564 1800.00000 0 10520381.225 -5730563.804 22541821.793 10 0 60564 2700.00000 0 12784962.294 -4218445.403 21687087.814 10 0 60564 3600.00000 0 15039884.918 -2939654.853 20412066.579 10 0 60564 4500.00000 0 17219451.255 -1907904.113 18741371.801 10 0 60564 5400.00000 0 19258075.524 -1124553.882 16707284.874 10 0 60564 6300.00000 0 21092886.981 -578777.534 14349142.214 10 0 60564 7200.00000 0 22666240.007 -248243.799 11712585.607 10 0 60564 8100.00000 0 23928027.031 -100289.617 8848688.824 10 0 60564 9000.00000 0 24837697.677 -93533.960 5812976.274 10 0 60564 9900.00000 0 25365899.173 -179864.823 2664351.888 10 0 60564 10800.00000 0 25495668.531 -306715.543 -536041.456 10 0 60564 11700.00000 0 25223125.461 -419534.054 -3726010.012 10 0 60564 12600.00000 0 24557635.797 -464340.128 -6843521.338 10 0 60564 13500.00000 0 23521437.470 -390261.526 -9827916.479 10 0 60564 14400.00000 0 22148743.809 -151940.503 -12621097.824 10 0 60564 15300.00000 0 20484361.154 288292.601 -15168668.573 10 0 60564 16200.00000 0 18581878.429 958572.313 -17421000.727 10 0 60564 17100.00000 0 16501504.539 1876057.337 -19334209.990 10 0 60564 18000.00000 0 14307644.456 3045958.788 -20871017.836 10 0 60564 18900.00000 0 12066315.859 4461080.037 -22001483.473 10 0 60564 19800.00000 0 9842514.870 6101889.021 -22703591.086 10 0 60564 20700.00000 0 7697641.457 7937121.301 -22963680.786 10 0 60564 21600.00000 0 5687092.351 9924889.544 -22776714.839 10 0 60564 22500.00000 0 3858122.032 12014253.682 -22146374.115 10 0 60564 23400.00000 0 2248060.878 14147186.398 -21084983.036 10 0 60564 24300.00000 0 882964.260 16260851.872 -19613264.713 10 0 60564 25200.00000 0 -223251.957 18290102.452 -17759931.304 10 0 60564 26100.00000 0 -1069154.674 20170088.619 -15561117.879 10 0 60564 27000.00000 0 -1665602.888 21838872.813 -13059671.207 10 0 60564 27900.00000 0 -2035032.966 23239937.565 -10304307.722 10 0 60564 28800.00000 0 -2210251.936 24324482.730 -7348657.634 10 0 60564 29700.00000 0 -2232791.573 25053415.712 -4250214.380 10 0 60564 30600.00000 0 -2150894.598 25398951.513 -1069210.498 10 0 60564 31500.00000 0 -2017219.644 25345756.027 2132557.533 10 0 60564 32400.00000 0 -1886363.331 24891585.402 5292932.084 10 0 60564 33300.00000 0 -1812305.167 24047395.521 8350600.998 10 0 60564 34200.00000 0 -1845883.949 22836918.003 11246284.391 10 0 60564 35100.00000 0 -2032412.551 21295721.393 13923878.683 10 0 60564 36000.00000 0 -2409531.847 19469797.627 16331536.076 10 0 60564 36900.00000 0 -3005394.103 17413733.354 18422659.220 10 0 60564 37800.00000 0 -3837252.145 15188542.657 20156792.756 10 0 60564 38700.00000 0 -4910513.514 12859251.268 21500395.624 10 0 60564 39600.00000 0 -6218299.381 10492332.299 22427480.352 10 0 60564 40500.00000 0 -7741527.123 8153099.122 22920108.100 10 0 60564 41400.00000 0 -9449513.841 5903162.479 22968730.831 10 0 60564 42300.00000 0 -11301076.732 3798056.018 22572374.608 10 0 60564 43200.00000 0 -13246085.778 1885127.347 21738660.754 10 0 60564 44100.00000 0 -15227405.696 201780.791 20483664.277 10 0 60564 45000.00000 0 -17183147.827 -1225856.322 18831611.741 10 0 60564 45900.00000 0 -19049139.777 -2383789.363 16814423.495 10 0 60564 46800.00000 0 -20761511.194 -3270499.102 14471107.930 10 0 60564 47700.00000 0 -22259288.835 -3896757.551 11847018.196 10 0 60564 48600.00000 0 -23486893.079 -4284924.822 8992984.507 10 0 60564 49500.00000 0 -24396431.621 -4467756.565 5964337.648 10 0 60564 50400.00000 0 -24949693.894 -4486772.079 2819841.831 10 0 60564 51300.00000 0 -25119761.810 -4390251.889 -379442.967 10 0 60564 52200.00000 0 -24892168.099 -4230949.452 -3571347.236 10 0 60564 53100.00000 0 -24265552.281 -4063614.098 -6693803.439 10 0 60564 54000.00000 0 -23251785.316 -3942430.687 -9686058.716 10 0 60564 54900.00000 0 -21875556.422 -3918485.268 -12489864.427 10 0 60564 55800.00000 0 -20173438.304 -4037365.279 -15050618.469 10 0 60564 56700.00000 0 -18192469.237 -4336997.248 -17318437.216 10 0 60564 57600.00000 0 -15988310.971 -4845814.977 -19249135.378 10 0 60564 58500.00000 0 -13623059.427 -5581337.230 -20805093.951 10 0 60564 59400.00000 0 -11162799.927 -6549216.451 -21955998.854 10 0 60564 60300.00000 0 -8675009.312 -7742800.054 -22679435.528 10 0 60564 61200.00000 0 -6225913.801 -9143223.965 -22961327.747 10 0 60564 62100.00000 0 -3877913.082 -10720035.466 -22796212.076 10 0 60564 63000.00000 0 -1687178.122 -12432319.910 -22187342.744 10 0 60564 63900.00000 0 298477.216 -14230284.473 -21146625.025 10 0 60564 64800.00000 0 2041362.501 -16057232.706 -19694378.657 10 0 60564 65700.00000 0 3515242.107 -17851847.101 -17858936.165 10 0 60564 66600.00000 0 4706177.204 -19550683.754 -15676084.197 10 0 60564 67500.00000 0 5612844.728 -21090774.247 -13188359.156 10 0 60564 68400.00000 0 6246321.782 -22412225.311 -10444211.245 10 0 60564 69300.00000 0 6629346.562 -23460706.895 -7497053.755 10 0 60564 70200.00000 0 6795088.984 -24189724.057 -4404216.701 10 0 60564 71100.00000 0 6785484.856 -24562577.315 -1225825.792 10 0 60564 72000.00000 0 6649205.719 -24553929.316 1976370.774 10 0 60564 72900.00000 0 6439351.707 -24150912.480 5140204.324 10 0 60564 73800.00000 0 6210966.119 -23353731.674 8204292.741 10 0 60564 74700.00000 0 6018477.623 -22175737.326 11109228.840 10 0 60564 75600.00000 0 5913178.600 -20642966.601 13798727.071 10 0 60564 76500.00000 0 5940846.216 -18793172.441 16220706.726 10 0 60564 77400.00000 0 6139606.428 -16674381.445 18328291.270 10 0 60564 78300.00000 0 6538130.587 -14343040.945 20080705.401 10 0 60564 79200.00000 0 7154240.180 -11861832.201 21444053.590 10 0 60564 80100.00000 0 7993978.114 -9297240.183 22391966.212 10 0 60564 81000.00000 0 9051185.498 -6716979.933 22906101.896 10 0 60564 81900.00000 0 10307601.996 -4187385.116 22976497.342 10 0 60564 82800.00000 0 11733486.254 -1770865.651 22601758.477 10 0 60564 83700.00000 0 13288731.503 476461.674 21789089.529 10 0 60564 84600.00000 0 14924431.118 2506872.865 20554159.325 10 0 60564 85500.00000 0 16584830.224 4282780.839 18920806.832 10 0 60565 0.00000 0 18209583.274 5778052.587 16920590.935 10 0 60565 900.00000 0 19736225.585 6978846.183 14592190.846 10 0 60565 1800.00000 0 21102754.441 7883931.393 11980670.257 10 0 60565 2700.00000 0 22250215.461 8504483.504 9136614.580 10 0 60565 3600.00000 0 23125183.952 8863357.071 6115159.486 10 0 60565 4500.00000 0 23682037.872 8993870.973 2974927.682 10 0 60565 5400.00000 0 23884926.116 8938155.756 -223105.795 10 0 60565 6300.00000 0 23709348.364 8745133.039 -3416797.956 10 0 60565 7200.00000 0 23143278.641 8468212.570 -6544048.631 10 0 60565 8100.00000 0 22187783.812 8162804.766 -9544013.603 10 0 60565 9000.00000 0 20857109.414 7883754.721 -12358295.778 10 0 60565 9900.00000 0 19178227.778 7682807.256 -14932090.283 10 0 60565 10800.00000 0 17189866.169 7606211.458 -17215260.307 10 0 60565 11700.00000 0 14941054.768 7692567.352 -19163321.894 10 0 60565 12600.00000 0 12489254.730 7971007.087 -20738317.768 10 0 60565 13500.00000 0 9898144.320 8459788.805 -21909562.638 10 0 60565 14400.00000 0 7235155.574 9165363.726 -22654245.129 10 0 60565 15300.00000 0 4568864.407 10081956.859 -22957874.418 10 0 60565 16200.00000 0 1966343.170 11191679.817 -22814562.870 10 0 60565 17100.00000 0 -509413.978 12465171.634 -22227139.247 10 0 60565 18000.00000 0 -2801885.595 13862740.965 -21207090.467 10 0 60565 18900.00000 0 -4863138.014 15335961.818 -19774333.244 10 0 60565 19800.00000 0 -6655573.348 16829655.699 -17956820.332 10 0 60565 20700.00000 0 -8153238.514 18284176.605 -15789989.339 10 0 60565 21600.00000 0 -9342641.922 19637902.505 -13316065.215 10 0 60565 22500.00000 0 -10223045.372 20829828.154 -10583230.396 10 0 60565 23400.00000 0 -10806220.784 21802149.813 -7644679.335 10 0 60565 24300.00000 0 -11115684.116 22502732.816 -4557576.355 10 0 60565 25200.00000 0 -11185440.771 22887357.992 -1381937.784 10 0 60565 26100.00000 0 -11058297.385 22921652.377 1820539.252 10 0 60565 27000.00000 0 -10783812.977 22582623.173 4987678.002 10 0 60565 27900.00000 0 -10415977.456 21859730.739 8058029.491 10 0 60565 28800.00000 0 -10010716.593 20755455.977 10972062.388 10 0 60565 29700.00000 0 -9623329.491 19285338.756 13673312.353 10 0 60565 30600.00000 0 -9305966.957 17477486.147 16109468.902 10 0 60565 31500.00000 0 -9105257.043 15371571.308 18233379.349 10 0 60565 32400.00000 0 -9060177.407 13017364.852 20003951.325 10 0 60565 33300.00000 0 -9200263.525 10472859.587 21386937.501 10 0 60565 34200.00000 0 -9544227.549 7802066.086 22355588.488 10 0 60565 35100.00000 0 -10099045.400 5072569.697 22891162.445 10 0 60565 36000.00000 0 -10859550.246 2352949.114 22983282.468 10 0 60565 36900.00000 0 -11808549.634 -289837.915 22630135.544 10 0 60565 37800.00000 0 -12917461.908 -2792994.971 21838509.495 10 0 60565 38700.00000 0 -14147446.279 -5100249.782 20623667.089 10 0 60565 39600.00000 0 -15450980.442 -7163942.904 19009059.240 10 0 60565 40500.00000 0 -16773821.091 -8946756.871 17025881.938 10 0 60565 41400.00000 0 -18057266.659 -10423014.954 14712484.348 10 0 60565 42300.00000 0 -19240628.657 -11579496.092 12113638.258 10 0 60565 43200.00000 0 -20263808.925 -12415732.464 9279681.727 10 0 60565 44100.00000 0 -21069875.124 -12943777.427 6265552.389 10 0 60565 45000.00000 0 -21607526.237 -13187453.585 3129728.252 10 0 60565 45900.00000 0 -21833343.934 -13181112.566 -66903.994 10 0 60565 46800.00000 0 -21713734.072 -12967958.719 -3262231.409 10 0 60565 47700.00000 0 -21226475.252 -12598007.575 -6394124.782 10 0 60565 48600.00000 0 -20361807.604 -12125765.582 -9401652.142 10 0 60565 49500.00000 0 -19123014.218 -11607729.735 -12226271.480 10 0 60565 50400.00000 0 -17526469.048 -11099813.615 -14812978.549 10 0 60565 51300.00000 0 -15601147.668 -10654809.629 -17111386.514 10 0 60565 52200.00000 0 -13387620.091 -10319995.866 -19076715.571 10 0 60565 53100.00000 0 -10936566.815 -10134989.851 -20670672.531 10 0 60565 54000.00000 0 -8306879.521 -10129940.956 -21862202.701 10 0 60565 54900.00000 0 -5563425.346 -10324138.788 -22628099.080 10 0 60565 55800.00000 0 -2774567.897 -10725097.077 -22953456.792 10 0 60565 56700.00000 0 -9548.332 -11328152.341 -22831963.909 10 0 60565 57600.00000 0 2664164.394 -12116594.632 -22266023.063 10 0 60565 58500.00000 0 5183443.779 -13062325.060 -21266701.640 10 0 60565 59400.00000 0 7491889.701 -14127012.376 -19853511.727 10 0 60565 60300.00000 0 9541927.136 -15263699.731 -18054024.355 10 0 60565 61200.00000 0 11296532.909 -16418793.555 -15903325.836 10 0 60565 62100.00000 0 12730519.461 -17534350.344 -13443327.156 10 0 60565 63000.00000 0 13831323.404 -18550564.503 -10721940.275 10 0 60565 63900.00000 0 14599267.537 -19408351.843 -7792137.916 10 0 60565 64800.00000 0 15047287.265 -20051919.380 -4710915.710 10 0 60565 65700.00000 0 15200134.973 -20431212.751 -1538177.541 10 0 60565 66600.00000 0 15093097.856 -20504137.823 1664433.584 10 0 60565 67500.00000 0 14770285.150 -20238462.833 4834735.795 10 0 60565 68400.00000 0 14282558.609 -19613321.034 7911216.033 10 0 60565 69300.00000 0 13685194.850 -18620250.818 10834221.374 10 0 60565 70200.00000 0 13035379.060 -17263729.870 13547110.938 10 0 60565 71100.00000 0 12389636.193 -15561181.138 15997346.379 10 0 60565 72000.00000 0 11801307.963 -13542450.524 18137500.421 10 0 60565 72900.00000 0 11318181.498 -11248777.986 19926164.819 10 0 60565 73800.00000 0 10980368.824 -8731304.646 21328741.266 10 0 60565 74700.00000 0 10818525.551 -6049177.384 22318101.083 10 0 60565 75600.00000 0 10852482.807 -3267328.722 22875102.091 10 0 60565 76500.00000 0 11090349.240 -454022.856 22988953.615 10 0 60565 77400.00000 0 11528120.426 2321731.889 22657423.264 10 0 60565 78300.00000 0 12149812.100 4992798.596 21886881.778 10 0 60565 79200.00000 0 12928112.063 7496448.580 20692185.010 10 0 60565 80100.00000 0 13825524.228 9776715.868 19096394.792 10 0 60565 81000.00000 0 14795957.902 11786473.043 17130343.256 10 0 60565 81900.00000 0 15786696.821 13489143.311 14832047.868 10 0 60565 82800.00000 0 16740666.482 14859978.310 12245987.254 10 0 60565 83700.00000 0 17598905.452 15886848.872 9422250.573 10 0 60565 84600.00000 0 18303137.457 16570515.906 6415575.712 10 0 60565 85500.00000 0 18798336.144 16924370.034 3284294.125 10 0 60566 0.00000 0 19035174.278 16973650.824 89202.453 10 0 60566 900.00000 0 18972253.402 16754178.317 -3107619.082 10 0 60566 1800.00000 0 18578018.528 16310650.229 -6244014.102 10 0 60566 2700.00000 0 17832275.964 15694576.864 -9258965.039 10 0 60566 3600.00000 0 16727248.147 14961941.132 -12093787.083 10 0 60566 4500.00000 0 15268119.317 14170683.137 -14693278.646 10 0 60566 5400.00000 0 13473047.226 13378116.338 -17006804.794 10 0 60566 6300.00000 0 11372638.669 12638385.322 -18989291.696 10 0 60566 7200.00000 0 9008909.468 12000073.499 -20602111.980 10 0 60566 8100.00000 0 6433771.321 11504062.626 -21813843.197 10 0 60566 9000.00000 0 3707108.030 11181735.289 -22600884.262 10 0 60566 9900.00000 0 894520.955 11053596.776 -22947917.669 10 0 60566 10800.00000 0 -1935162.543 11128374.882 -22848208.438 10 0 60566 11700.00000 0 -4712513.971 11402635.739 -22303734.056 10 0 60566 12600.00000 0 -7370152.598 11860931.850 -21325143.030 10 0 60566 13500.00000 0 -9845308.237 12476475.794 -19931543.086 10 0 60566 14400.00000 0 -12082191.420 13212310.795 -18150123.364 10 0 60566 15300.00000 0 -14034072.699 14022928.211 -16015618.288 10 0 60566 16200.00000 0 -15664985.070 14856263.052 -13569623.896 10 0 60566 17100.00000 0 -16950979.570 15655982.634 -10859780.328 10 0 60566 18000.00000 0 -17880882.850 16363971.027 -7938836.931 10 0 60566 18900.00000 0 -18456526.680 16922903.777 -4863618.745 10 0 60566 19800.00000 0 -18692441.615 17278803.597 -1693915.084 10 0 60566 20700.00000 0 -18615029.602 17383468.726 1508687.479 10 0 60566 21600.00000 0 -18261252.264 17196671.165 4682004.458 10 0 60566 22500.00000 0 -17676891.821 16688031.994 7764461.384 10 0 60566 23400.00000 0 -16914459.374 15838494.730 10696286.554 10 0 60566 24300.00000 0 -16030839.767 14641334.837 13420665.464 10 0 60566 25200.00000 0 -15084772.860 13102663.048 15884834.879 10 0 60566 26100.00000 0 -14134277.462 11241401.417 18041095.884 10 0 60566 27000.00000 0 -13234126.022 9088732.918 19847727.217 10 0 60566 27900.00000 0 -12433475.609 6687047.192 21269782.272 10 0 60566 28800.00000 0 -11773753.818 4088425.665 22279755.503 10 0 60566 29700.00000 0 -11286887.303 1352728.094 22858106.495 10 0 60566 30600.00000 0 -10993946.261 -1454641.336 22993632.519 10 0 60566 31500.00000 0 -10904260.929 -4265197.153 22683683.078 10 0 60566 32400.00000 0 -11015046.602 -7009964.559 21934212.638 10 0 60566 33300.00000 0 -11311552.763 -9622094.536 20759670.429 10 0 60566 34200.00000 0 -11767730.345 -12039395.250 19182728.983 10 0 60566 35100.00000 0 -12347389.704 -14206676.256 17233855.839 10 0 60566 36000.00000 0 -13005801.562 -16077809.283 14950735.531 10 0 60566 36900.00000 0 -13691674.594 -17617420.736 12377551.848 10 0 60566 37800.00000 0 -14349427.377 -18802145.874 9564142.954 10 0 60566 38700.00000 0 -14921659.792 -19621392.518 6565044.571 10 0 60566 39600.00000 0 -15351720.039 -20077582.221 3438438.891 10 0 60566 40500.00000 0 -15586258.979 -20185858.602 245029.006 10 0 60566 41400.00000 0 -15577663.418 -19973274.795 -2953139.553 10 0 60566 42300.00000 0 -15286264.615 -19477493.956 -6093887.060 10 0 60566 43200.00000 0 -14682227.330 -18745057.492 -9116113.713 10 0 60566 44100.00000 0 -13747037.974 -17829294.103 -11960995.310 10 0 60566 45000.00000 0 -12474527.157 -16787958.190 -14573136.306 10 0 60566 45900.00000 0 -10871381.598 -15680697.788 -16901656.936 10 0 60566 46800.00000 0 -8957121.950 -14566459.561 -18901192.385 10 0 60566 47700.00000 0 -6763545.768 -13500941.076 -20532783.790 10 0 60566 48600.00000 0 -4333657.552 -12534198.557 -21764643.188 10 0 60566 49500.00000 0 -1720129.490 -11708511.584 -22572777.127 10 0 60566 50400.00000 0 1016643.546 -11056595.209 -22941456.608 10 0 60566 51300.00000 0 3810814.083 -10600235.042 -22863524.150 10 0 60566 52200.00000 0 6593582.914 -10349402.776 -22340532.098 10 0 60566 53100.00000 0 9295826.619 -10301889.153 -21382709.574 10 0 60566 54000.00000 0 11850742.441 -10443469.326 -20008758.972 10 0 60566 54900.00000 0 14196400.478 -10748592.940 -18245486.166 10 0 60566 55800.00000 0 16278097.059 -11181568.992 -16127271.913 10 0 60566 56700.00000 0 18050411.641 -11698194.510 -13695395.137 10 0 60566 57600.00000 0 19478882.102 -12247757.324 -10997221.623 10 0 60566 58500.00000 0 20541229.381 -12775327.339 -8085274.459 10 0 60566 59400.00000 0 21228081.543 -13224238.572 -5016204.908 10 0 60566 60300.00000 0 21543168.475 -13538656.264 -1849684.305 10 0 60566 61200.00000 0 21502980.739 -13666119.897 1352760.742 10 0 60566 62100.00000 0 21135908.712 -13559954.191 4528946.656 10 0 60566 63000.00000 0 20480899.927 -13181445.954 7617240.960 10 0 60566 63900.00000 0 19585692.595 -12501694.809 10557756.321 10 0 60566 64800.00000 0 18504700.885 -11503059.756 13293507.430 10 0 60566 65700.00000 0 17296641.666 -10180140.699 15771508.567 10 0 60566 66600.00000 0 16022002.918 -8540253.681 17943791.141 10 0 60566 67500.00000 0 14740460.004 -6603379.714 19768322.373 10 0 60566 68400.00000 0 13508347.758 -4401588.910 21209808.405 10 0 60566 69300.00000 0 12376293.520 -1977963.317 22240367.430 10 0 60566 70200.00000 0 11387109.204 614937.687 22840060.975 10 0 60566 71100.00000 0 10574029.484 3317006.902 22997274.037 10 0 60566 72000.00000 0 9959368.712 6062835.093 22708937.432 10 0 60566 72900.00000 0 9553651.865 8784181.568 21980588.422 10 0 60566 73800.00000 0 9355255.223 11412568.861 20826268.398 10 0 60566 74700.00000 0 9350571.598 13881895.592 19268259.132 10 0 60566 75600.00000 0 9514693.217 16130960.571 17336661.895 10 0 60566 76500.00000 0 9812584.025 18105794.608 15068826.460 10 0 60566 77400.00000 0 10200692.749 19761703.887 12508639.806 10 0 60566 78300.00000 0 10628939.572 21064940.315 9705687.021 10 0 60566 79200.00000 0 11042993.324 21993929.320 6714299.486 10 0 60566 80100.00000 0 11386743.618 22540003.571 3592507.882 10 0 60566 81000.00000 0 11604863.603 22707611.556 400919.738 10 0 60566 81900.00000 0 11645354.768 22513991.793 -2798456.964 10 0 60566 82800.00000 0 11461965.427 21988325.885 -5943421.111 10 0 60566 83700.00000 0 11016379.469 21170405.721 -8972792.799 10 0 60566 84600.00000 0 10280081.290 20108870.756 -11827610.424 10 0 60566 85500.00000 0 9235816.332 18859089.683 -14452286.291 99